Время (UTC), дата Ветер
(°,м/с) 
Видим.   Явления Облачность Т
(°С)
Тd
(°С)
f(%) Тe
(°С)
Pmin
(гПа)
dP
(гПа)
Po
(мм)
O2
(г/м3)
Тmin Tmax R s Состояние
почвы
00 01.01.12 130 (ЮВ) >10 км    4/0 верхняя 
[Ci fib]
+0.2 -2.5 82 -2  1016.7  721  291           
03 01.01.12 120 (ЮВ) >10 км    4/0 верхняя 
[Ci fib]
+0.3 -2.8 80 -2  1016  -0.6  720  290           
06 01.01.12 140 (ЮВ) >10 км    4/0 средняя, верхняя 
[Ac trans|Ci fib]
+1.4 -2.7 74 -1  1016.4  -0.6  721  289  +0.1         
12 01.01.12 130 (ЮВ) >10 км    4/0 средняя 
[Ac trans]
+6.4 -2.1 55 +4  1012.3  -1.3  719  283           
15 01.01.12 120 (ЮВ) >10 км    8/0 средняя, верхняя 
[Ac trans|Ci fib]
+1.5 -3.2 71 -1  1013  -0.3  719  288    +7.3       
18 01.01.12 130 (ЮВ) >10 км    8/0 средняя, верхняя 
[Ac trans|Ci fib]
-0.8 -3.2 84 -3  1013  -0.5  718  290    +7.3       
21 01.01.12 100 (В) >10 км    10/0 средняя, верхняя 
[Ac trans|Ci fib]
-1.3 -2.4 92 -2  1013.1  718  291           
00 02.01.12 280 (З) >10 км    10/8 360 м средняя 
[Sc|Ac und]
+2 +0.7 91 -1  1013.8  1.3  719  287           
06 02.01.12 280 (З) >10 км    10/6 360 м кучево-дожд., средняя 
[Cb cap|Ac As]
-2.5 -4.1 89 -6  1019.9  723  294  -2    0.6  равномерный
мокрый или
старый снег
100% 
09 02.01.12 270 (З) 10 км  слаб. ливневой снег  10/6 630 м кучево-дожд., средняя 
[Cb cap|Ac und]
-2.2 -4.8 82 -7  1020.2  0.3  723  294           
12 02.01.12 280 (З) 2500 м  ливневой снег  9/6 540 м кучево-дожд., средняя 
[Cb cap|Ac As]
-1.8 -4 85 -6  1021.4  1.3  724  294           
15 02.01.12 270 (З) 10 км  слаб. ливневой снег  10/5 500 м кучево-дожд., средняя 
[Cb cap|Ac und]
-2.6 -4.3 88 -8  1022.7  725  295    -1.4       
18 02.01.12 270 (З) >10 км  позёмок{ливн. осадки}  6/5 600 м кучево-дожд., средняя 
[Cb cap|Ac trans]
-3.7 -6.5 81 -9  1022.9  0.1  725  297    -1.4  0.3     
21 02.01.12 270 (З) 10  >10 км  позёмок  3/3 600 м 
[Sc]
-4.8 -6.9 85 -11  1022.8  -0.3  725  298           
00 03.01.12 260 (З) >10 км  позёмок  10/8 800 м кучево-дожд., средняя 
[Cb cap|Ac und]
-3.6 -5.9 84 -9  1022.8  0.3  725  296           
03 03.01.12 270 (З) 4000 м  слаб. ливневой снег  10/8 180 м кучево-дожд., средняя 
[Cb cap|Ac und]
-3.3 -4.4 92 -9  1022.5  -0.2  725  296        неравномерный
сухой снег
100% 
06 03.01.12 290 (З) 3000 м  слаб. ливневой снег  10/8 210 м кучево-дожд., средняя 
[Cb cap|Ac und]
-2.5 -3.2 95 -7  1023.7  1.3  726  295  -5.1    0.0     
09 03.01.12 280 (З) 10 км  в посл. час ливневой снег  10/8 240 м кучево-дожд., средняя 
[Cb cap|Ac und]
-2.3 -3.1 94 -7  1024.1  0.4  726  295           
12 03.01.12 280 (З) >10 км  {ливн. осадки}  9/6 420 м кучево-дожд., средняя 
[Cb calv|Ac trans]
-1.4 -3.2 88 -6  1025  727  295           
15 03.01.12 270 (З) >10 км    8/5 540 м кучево-дожд., средняя 
[Cb calv|Ac trans]
-1.5 -3.2 88 -6  1026.1  727  295    -1.3       
18 03.01.12 270 (З) >10 км    3/3 300 м 
[Sc diur, vesp]
-0.6 -2.1 90 -5  1025.7  -0.2  727  294    -1.3  0.6     
21 03.01.12 280 (З) >10 км    8/3 300 м средняя 
[Sc|Ac trans]
+1.2 -1.1 85 -2  1024.9  -0.4  727  292           
00 04.01.12 250 (З) 10 км  в посл. час ливневой снег  10/5 300 м средняя 
[Sc|Ac und]
+0.9 +0.1 94 -1  1024.3  -0.6  726  292           
03 04.01.12 200 (Ю) 10 км  в посл. час ливневой снег  10/6 700 м средняя 
[Sc|Ac und]
+0.4 -0 97 -2  1023  -0.6  725  292        равномерный
сухой снег
100% 
06 04.01.12 230 (ЮЗ) >10 км  слаб. дождь{снег}  10/5 600 м средняя 
[Sc|Ac und]
+1.3 +0.5 94 1023  0.2  726  291  -1.5    0.7  равномерный
мокрый или
старый снег
100% 
09 04.01.12 260 (З) >10 км    8/4 1000 м средняя 
[Sc|Ac trans]
+3.2 -0.2 78 -1  1020.9  -1.7  724  288           
12 04.01.12 280 (З) >10 км    9/6 1000 м средняя 
[Sc|Ac trans]
+3.8 +1.3 84 1020.9  -1.7  724  288           
15 04.01.12 280 (З) >10 км    10/6 600 м средняя 
[Sc|Ac und]
+3.6 +1.6 87 +1  1022  -1.7  725  288    +3.8       
18 04.01.12 280 (З) >10 км    10/6 800 м средняя 
[Sc|Ac und]
+3.1 +1.6 90 +1  1022.4  0.3  725  289    +3.8  0.0     
21 04.01.12 190 (Ю) >10 км    10/6 600 м средняя 
[Sc|Ac und]
+2.4 +1.1 91 +2  1022.4  0.1  725  290           
00 05.01.12 200 (Ю) >10 км    4/3 1000 м средняя 
[Sc|Ac trans]
+0.3 -0.8 92 -1  1022.3  -0.5  725  292           
03 05.01.12 170 (Ю) >10 км    ясно 
+0.1 -1.1 92 -2  1021.1  -1.2  724  292           
06 05.01.12 180 (Ю) >10 км    1/0 средняя 
[Ac trans]
+1.9 +0 87 1020.1  -1.2  724  289  -0.4         
09 05.01.12 130 (ЮВ) >10 км    4/0 верхняя 
[Ci fib]
+6.3 +1.9 73 +5  1017.4  -1.7  722  284           
12 05.01.12 140 (ЮВ) >10 км    8/0 верхняя 
[Ci fib]
+7.6 +1.4 65 +6  1015.4  -1.6  721  282           
15 05.01.12 150 (ЮВ) >10 км    6/0 средняя 
[Ac trans]
+3.3 +1.7 89 +1  1015.2  -1  720  286    +8       
18 05.01.12 150 (ЮВ) >10 км    4/0 верхняя 
[Ci fib]
+2.1 +1 93 -1  1013.7  -1  719  287    +8       
21 05.01.12 140 (ЮВ) >10 км    6/0 верхняя 
[Ci fib]
+1.2 +0.2 93 -2  1012.4  -1.4  718  288           
00 06.01.12 150 (ЮВ) н/о    н/о 
+0.3 -0.2 96 -1  1011.7  -0.8  717  289           
03 06.01.12 140 (ЮВ) >10 км    4/0 верхняя 
[Ci fib]
-1.5 -1.9 97 -4  1011.1  -1  717  291           
06 06.01.12 130 (ЮВ) 0900 м  туман  8/0 средняя, верхняя 
[Ac trans|Ci fib]
-1.5 -1.7 99 -3  1011.5  0.4  717  291  -1.5         
09 06.01.12 110 (В) >10 км  {туман}  8/4 600 м средняя 
[Sc diur, vesp|Ac trans]
+1.6 +0.5 92 -1  1009.9  0.4  716  287           
12 06.01.12 110 (В) >10 км  {туман}  10/5 1000 м средняя 
[Sc diur, vesp|Ac und]
+1.9 +0.3 89 1009.9  -0.1  716  287           
15 06.01.12 120 (ЮВ) 4000 м  дымка  10/10 100 м 
[St]
-1 -1.3 98 -2  1012.1  1.5  718  290    +3.4       
18 06.01.12 090 (В) 0100 м  переохл. морось (гололёд){туман} [диам. гололёда 2 мм]  ?/?  
-2.2 -2.4 98 -4  1013.6  1.1  718  292    +3.4       
21 06.01.12 170 (Ю) 4000 м  дымка{морось, туман} [диам. сложн. отлож. 6 мм]  ясно 
-5.1 -5.6 96 -7  1013.9  -0.3  718  295           
00 07.01.12 200 (Ю) 0400 м  переохл. туман{морось}  ясно 
-6.2 -6.8 95 -6  1014.7  0.5  719  297          очень
сухая
с трещинами 
03 07.01.12 170 (Ю) 0300 м  переохл. туман [диам. сложн. отлож. 9 мм]  ясно 
-7.1 -7.8 95 -7  1016  719  298           
06 07.01.12 120 (ЮВ) 0400 м  переохл. туман [диам. сложн. отлож. 12 мм]  4/0 средняя 
[Ac trans]
-5.6 -6.1 96 -5  1017.2  1.4  720  297  -7.1         
09 07.01.12 120 (ЮВ) 4000 м  дымка{туман} [диам. сложн. отлож. 6 мм]  6/3 100 м верхняя 
[St|Ci fib]
-1 -1.3 98 -3  1016.2  0.1  720  291           
12 07.01.12 120 (ЮВ) 10 км  {туман}  9/4 200 м средняя 
[St|Ac trans]
+1.6 +0.2 91 -1  1015.6  720  288           
15 07.01.12 130 (ЮВ) 10 км    10/10 100 м 
[St]
+0.1 -0.3 97 -3  1016.5  0.5  721  290    +1.9       
18 07.01.12 140 (ЮВ) 10 км    9/6 150 м средняя 
[St|Ac trans]
-0.3 -0.8 96 -4  1016.2  -0.3  721  291    +1.9       
21 07.01.12 160 (Ю) 2000 м  дымка  10/10 100 м 
[St]
-1.2 -1.4 99 -5  1015.9  -0.5  720  292           
00 08.01.12 130 (ЮВ) 10 км    10/8 150 м средняя 
[St|Ac und]
-1.6 -1.9 98 -4  1015.3  -0.7  720  292           
03 08.01.12 150 (ЮВ) >10 км    9/3 200 м средняя, верхняя 
[St|Ac trans|Ci fib]
-1.9 -2 99 -6  1014  -1.2  719  292           
06 08.01.12 120 (ЮВ) 10 км    10/3 300 м средняя 
[Sc|Ac und]
-1.7 -2 98 -5  1014.1  0.2  719  292  -2         
09 08.01.12 140 (ЮВ) 10 км    10/6 210 м средняя 
[St|Ac und]
+0.2 -0.8 93 -4  1013.1  -0.6  718  289           
12 08.01.12 140 (ЮВ) >10 км    10/6 300 м средняя 
[Sc|Ac und]
+0.2 -0.8 93 -3  1013.1  718  289           
15 08.01.12 130 (ЮВ) >10 км    10/8 210 м средняя 
[St|Ac und]
+0.1 -0.6 95 -3  1013.5  0.4  719  289    +0.6       
18 08.01.12 130 (ЮВ) >10 км    10/6 180 м средняя 
[St|Ac und]
-0.5 -0.9 97 -2  1013.2  -0.4  718  290    +0.6       
21 08.01.12 110 (В) 3000 м  дымка  10/10 100 м 
[St]
+0.1 -0.2 98 -1  1012.8  -0.3  718  289           
00 09.01.12 130 (ЮВ) 0200 м  морось{туман}  ?/?  
+0.7 +0.5 99 -1  1012.3  -0.3  718  288           
03 09.01.12 130 (ЮВ) 0200 м  туман{морось}  ?/?  
+0.3 +0.1 99 -3  1011.9  -0.4  718  289           
06 09.01.12 120 (ЮВ) 0200 м  слаб. морось{туман}  ?/?  
+0 -0.2 99 -3  1012.7  0.7  718  289      0.0     
09 09.01.12 130 (ЮВ) 4000 м  дымка{морось, туман}  10/10 120 м 
[St]
+1.5 +1.3 99 -1  1011.4  -0.9  717  287           
12 09.01.12 100 (В) >10 км  {морось, туман}  6/4 240 м средняя 
[St|Ac trans]
+3.6 +1.7 87 +1  1010.2  -0.8  717  285           
15 09.01.12 100 (В) 10 км    10/10 60 м 
[St]
+1.2 +0.7 96 -1  1011.6  0.9  718  288    +3.8       
18 09.01.12 150 (ЮВ) 2500 м  дымка  10/10 50 м 
[St]
+0.2 -0.1 98 -2  1012.5  0.6  718  289    +3.8  0.0     
21 09.01.12 100 (В) 0700 м  туман  н/о 
+0.1 -0.1 99 +1  1012.6  0.1  718  289           
00 10.01.12 120 (ЮВ) 4000 м  дымка{туман}  10/6 180 м средняя 
[St|Ac und]
+0.2 +0 99 -2  1013.5  0.9  719  289           
03 10.01.12 300 (СЗ) 4000 м  дымка{туман}  10/3 180 м средняя 
[St|Ac und]
+1.1 +0.8 98 -1  1015  1.6  720  289           
06 10.01.12 280 (З) >10 км    9/3 1000 м средняя 
[Sc|Ac trans]
+4.1 +2 86 +2  1017  2.5  722  286  -0.3         
09 10.01.12 280 (З) >10 км    8/3 300 м средняя 
[Sc|Ac trans]
+6.5 +2 73 +4  1016.8  0.3  722  284           
12 10.01.12 280 (З) >10 км    3/3 300 м верхняя 
[Sc|Ci fib]
+6.9 +1.9 70 +5  1017.3  0.3  722  284           
15 10.01.12 250 (З) >10 км    3/0 средняя 
[Ac trans]
+3.2 +0.3 81 +1  1020.7  2.4  724  288    +7.3       
18 10.01.12 290 (З) >10 км    8/0 средняя 
[Ac trans]
+2.2 -0.4 83 +2  1021  0.1  724  289    +7.3       
21 10.01.12 240 (ЮЗ) >10 км    10/0 средняя 
[Ac und]
+1.2 -0.7 87 +2  1021.6  0.4  725  291           
00 11.01.12 140 (ЮВ) >10 км    10/0 средняя 
[Ac und]
+2.8 -0.7 78 +4  1021  0.4  724  289           
03 11.01.12 130 (ЮВ) >10 км    10/4 1000 м средняя 
[Sc|Ac und]
+2.8 -0.7 78 +2  1021  -0.3  724  289           
06 11.01.12 080 (В) >10 км  слаб. дождь  10/3 600 м средняя 
[Sc|Ac und]
+2.3 +0.5 88 +2  1020.9  0.2  724  289  +0.6         
09 11.01.12 120 (ЮВ) >10 км  {дождь}  8/3 600 м средняя 
[Sc|Ac trans]
+5 +1.8 80 +3  1019.2  -1.1  723  286           
12 11.01.12 100 (В) >10 км  {дождь}  10/4 600 м средняя 
[Sc|Ac und]
+5.8 +0.1 67 +5  1018.2  -0.7  723  285           
15 11.01.12 110 (В) >10 км    10/3 600 м средняя 
[Sc|Ac und]
+4 +1.3 83 +2  1018.8  0.2  723  287    +6       
18 11.01.12 130 (ЮВ) >10 км  слаб. ливневой дождь  10/6 300 м кучево-дожд., средняя 
[Cb cap|Ac und]
+3 +1.5 90 +1  1018.5  -0.5  723  288    +6  0.0     
21 11.01.12 050 (СВ) >10 км  {ливн. осадки}  10/4 600 м кучево-дожд., средняя 
[Cb calv|Ac und]
+2.1 +1.2 94 +3  1018.3  -0.4  722  289           
00 12.01.12 070 (В) 10 км  слаб. ливневой дождь  10/6 360 м кучево-дожд., средняя 
[Cb cap|Ac und]
+1.3 +0.9 97 +2  1018.1  -0.3  722  289           
03 12.01.12 тихо ()   1300 м  дымка{ливн. осадки}  10/8 150 м кучево-дожд., средняя 
[Cb calv|Ac und]
+0.2 -0.1 98 1018.1  -0.2  722  291           
06 12.01.12 250 (З) 2000 м  дымка{ливн. осадки, туман}  10/8 100 м средняя 
[St|Ac und]
+1.3 +1.1 99 +1  1018.7  0.8  723  290  +0.2       
09 12.01.12 280 (З) 2000 м  дымка{туман}  10/8 120 м средняя 
[St|Ac und]
+2.8 +2.4 97 +1  1018.2  0.1  722  288           
12 12.01.12 290 (З) 4000 м  дымка{туман}  10/8 180 м средняя 
[St|Ac und]
+1.8 +1.5 98 -1  1018.7  0.2  723  289           
15 12.01.12 280 (З) >10 км    10/8 240 м средняя 
[St|Ac und]
+1.1 +0.2 94 1020  1.1  723  290    +2.8       
18 12.01.12 280 (З) 4000 м  дымка{туман}  10/6 150 м средняя 
[St|Ac und]
+0.2 -0.3 96 -2  1020.7  0.4  724  291    +2.8       
21 12.01.12 260 (З) >10 км    8/5 1200 м средняя 
[Sc|Ac trans]
+0.1 -1 92 -2  1020.3  -0.4  723  291           
00 13.01.12 250 (З) >10 км    10/6 540 м средняя 
[Sc|Ac und]
+0.3 -0.7 93 -1  1020.1  0.1  723  291           
06 13.01.12 200 (Ю) 10 км    8/3 600 м средняя 
[Sc diur, vesp|Ac trans]
-0.1 -1.3 92 -2  1019.6  0.1  723  292  -0.7         
09 13.01.12 190 (Ю) >10 км    10/6 600 м средняя 
[Sc diur, vesp|Ac und]
+2.2 -0.8 81 +2  1017.8  -1.3  722  289           
12 13.01.12 270 (З) >10 км    10/8 1000 м средняя 
[Sc|Ac und]
+2.8 -1.2 75 +2  1016.4  -1.2  721  288           
15 13.01.12 тихо ()   >10 км    10/5 600 м средняя 
[Sc|Ac und]
+1.7 -1.2 81 +2  1016.6  721  289    +2.9       
18 13.01.12 130 (ЮВ) >10 км    10/4 1000 м средняя 
[Sc|Ac und]
+1.5 -0.2 88 1015.8  -0.9  720  289    +2.9       
21 13.01.12 180 (Ю) >10 км    10/5 1000 м средняя 
[Sc|Ac und]
+1.4 -1 84 1015.4  -0.3  720  289           
00 14.01.12 160 (Ю) >10 км    9/4 1000 м средняя 
[Sc|Ac trans]
-0.1 -1.1 93 -1  1014.5  -1.2  719  290           
03 14.01.12 150 (ЮВ) 10 км    10/3 300 м средняя 
[Sc|Ac und]
-0.6 -1 97 -2  1012.8  -1.7  718  290           
06 14.01.12 160 (Ю) >10 км    10/3 300 м средняя 
[Sc|Ac und]
-0.6 -1.3 95 -2  1012.1  -0.6  718  290  -1.5         
09 14.01.12 150 (ЮВ) >10 км    10/3 300 м средняя 
[Sc|Ac und]
+1.8 -0.6 84 -2  1010.5  -1.1  717  287           
12 14.01.12 040 (СВ) >10 км    10/5 300 м средняя 
[Sc|Ac und]
+3.5 -0.5 75 +3  1010.2  0.1  717  285           
15 14.01.12 190 (Ю) >10 км    6/0 средняя 
[Ac trans]
-0.8 -1.7 94 -3  1012.2  718  290    +4.5       
18 14.01.12 010 (С) >10 км    10/6 630 м средняя 
[Sc|Ac und]
-0.1 -1 94 -1  1011.9  -0.1  718  289    +4.5       
21 14.01.12 300 (СЗ) >10 км    10/3 600 м средняя 
[Sc|Ac und]
-0.8 -1.6 94 1011.2  -0.9  717  290           
00 15.01.12 130 (ЮВ) 10 км    10/5 600 м средняя 
[Sc|Ac und]
-1.5 -1.9 97 -3  1009.8  -1.4  716  290           
03 15.01.12 160 (Ю) >10 км    10/5 600 м средняя 
[Sc|Ac und]
-1 -2 93 -2  1007.7  -1.9  714  289           
06 15.01.12 280 (З) 2000 м  слаб. ливневой снег  10/8 120 м кучево-дожд., средняя 
[Cb cap|Ac und]
-0.2 -0.7 96 -4  1010.7  717  289  -2.8         
09 15.01.12 260 (З) >10 км  слаб. ливневой снег  10/8 180 м кучево-дожд., средняя 
[Cb cap|Ac und]
-0.6 -1.6 93 -4  1012.4  1.5  718  290           
12 15.01.12 270 (З) >10 км  {ливн. осадки}  10/8 480 м кучево-дожд., средняя 
[Cb calv|Ac und]
-1 -2.6 89 -4  1012.7  0.2  718  291           
15 15.01.12 260 (З) >10 км    10/4 300 м кучево-дожд., средняя 
[Cb calv|Ac und]
-1.9 -3.2 91 -1  1015.3  2.3  720  292    +0.3       
18 15.01.12 230 (ЮЗ) >10 км    10/3 600 м кучево-дожд., средняя 
[Cb calv|Ac und]
-2.6 -3.4 94 -2  1015.5  720  293    +0.3  0.4     
21 15.01.12 150 (ЮВ) >10 км    10/4 600 м кучево-дожд., средняя 
[Cb calv|Ac und]
-2.3 -3.7 90 -3  1015.1  -0.2  719  293           
00 16.01.12 090 (В) >10 км    10/3 600 м кучево-дожд., средняя 
[Cb calv|Ac und]
-2.6 -3.1 96 -4  1013.9  -1.2  719  293           
06 16.01.12 090 (В) 3000 м  слаб. ливневой снег  10/8 100 м кучево-дожд., средняя 
[Cb cap|Ac und]
-2.7 -3 98 -6  1014  0.5  719  293  -3.4    0.5     
09 16.01.12 070 (В) 3000 м  слаб. ливневой снег{туман}  10/8 120 м кучево-дожд., средняя 
[Cb cap|Ac und]
-2.4 -2.8 97 -5  1012.8  -1  718  292           
12 16.01.12 080 (В) 1500 м  ливневой снег{туман}  10/8 120 м кучево-дожд., средняя 
[Cb cap|Ac und]
-2.6 -3.1 96 -6  1012.4  -0.4  718  292           
15 16.01.12 110 (В) 2000 м  слаб. ливневой снег  10/8 180 м кучево-дожд., средняя 
[Cb cap|Ac und]
-2.7 -3 98 -6  1012.1  -0.3  717  292    -2.3       
18 16.01.12 060 (СВ) 1700 м  ливневой снег  10/8 100 м кучево-дожд., средняя 
[Cb cap|Ac und]
-2.9 -3.2 98 -4  1012.4  0.3  717  292    -2.3     
21 16.01.12 210 (ЮЗ) 4000 м  слаб. ливневой снег  10/8 210 м кучево-дожд., средняя 
[Cb cap|Ac und]
-3.2 -3.6 97 -3  1013.8  1.2  718  293           
00 17.01.12 290 (З) 10 км  слаб. ливневой снег  10/8 270 м кучево-дожд., средняя 
[Cb cap|Ac und]
-3.1 -3.5 97 -4  1014.7  0.9  719  293           
03 17.01.12 260 (З) 10 км  {ливн. осадки}  9/6 100 м средняя 
[St|Ac trans]
-3 -3.3 98 -5  1015.7  720  294        18  равномерный
сухой снег
100% 
06 17.01.12 250 (З) 10 км  {ливн. осадки}  9/6 200 м средняя 
[St|Ac trans]
-2.2 -2.6 97 -2  1018  2.4  722  293  -3.4       
09 17.01.12 290 (З) >10 км    10/6 600 м средняя 
[Sc|Ac und]
-0.1 -1.4 91 -1  1017.6  722  291           
12 17.01.12 100 (В) 2000 м  слаб. ливневой снег  10/8 100 м кучево-дожд., средняя 
[Cb cap|Ac und]
-2.1 -2.5 97 -4  1019.2  1.1  722  294           
15 17.01.12 140 (ЮВ) 3000 м  слаб. ливневой снег  10/8 210 м кучево-дожд., средняя 
[Cb cap|Ac und]
-1.8 -2.1 98 -3  1020.9  1.6  724  294    +0.1       
18 17.01.12 140 (ЮВ) 2500 м  слаб. ливневой снег  10/8 100 м кучево-дожд., средняя 
[Cb cap|Ac und]
-1.8 -2.1 98 -3  1021.8  0.9  724  294    +0.1     
21 17.01.12 тихо ()   2000 м  {ливн. осадки}  10/8 210 м кучево-дожд., средняя 
[Cb cap|Ac und]
-1.9 -2.2 98 -2  1022.2  0.3  725  294           
00 18.01.12 310 (СЗ) 2000 м  слаб. ливневой снег  10/8 210 м кучево-дожд., средняя 
[Cb cap|Ac und]
-1.6 -1.9 98 -3  1023.5  1.3  725  294           
03 18.01.12 тихо ()   2000 м  слаб. ливневой снег  10/8 200 м кучево-дожд., средняя 
[Cb cap|Ac und]
-2.4 -2.7 98 -2  1024.6  0.9  726  295        20  равномерный
мокрый или
старый снег
100% 
06 18.01.12 300 (СЗ) 4000 м  слаб. ливневой снег  10/8 200 м кучево-дожд., средняя 
[Cb cap|Ac und]
-1.5 -1.8 98 -3  1025.6  1.1  727  295  -2.4       
09 18.01.12 300 (СЗ) 4000 м  слаб. ливневой снег [диам. отлож. мокр. снега 12 мм]  10/8 150 м кучево-дожд., средняя 
[Cb cap|Ac und]
-1 -1.7 95 -3  1025.6  0.1  727  294           
12 18.01.12 300 (СЗ) 10 км  {ливн. осадки} [диам. отлож. мокр. снега 12 мм]  10/6 720 м кучево-дожд., средняя 
[Cb calv|Ac und]
-0.7 -1.6 94 -2  1026  0.1  727  294           
15 18.01.12 060 (СВ) 1300 м  дымка  8/5 150 м средняя 
[St|Ac trans]
-3.2 -3.7 96 -3  1027.3  0.7  728  297    -0.2       
18 18.01.12 090 (В) 10 км  {туман}  10/6 200 м средняя 
[St|Ac und]
-3.1 -3.8 95 -5  1027.3  728  297    -0.2  0.4     
21 18.01.12 080 (В) 0400 м  туман  10/0 
[]
-3.9 -4.2 98 -7  1027  -0.4  728  298           
00 19.01.12 080 (В) 4000 м  дымка{туман}  10/10 180 м 
[St]
-4.5 -5 96 -7  1026.3  -0.8  727  298           
03 19.01.12 100 (В) >10 км    10/5 400 м средняя 
[Sc|Ac und]
-5.1 -5.7 96 -8  1025.8  -0.6  727  299        20  равномерный
сухой снег
100% 
06 19.01.12 090 (В) 4000 м  слаб. снег  10/10 210 м 
[St]
-5.1 -5.7 96 -7  1025.8  0.5  727  299  -5.1         
09 19.01.12 060 (СВ) 0300 м  туман  ?/?  
-5.4 -6 96 -7  1025.7  -0.7  726  299           
12 19.01.12 100 (В) 0300 м  туман  ?/?  
-4.8 -5.5 95 -4  1025.6  726  298           
15 19.01.12 040 (СВ) 0900 м  слаб. снег{туман}  10/8 120 м средняя 
[St|Ac und]
-6.3 -6.9 96 -6  1025.9  726  300    -4.6       
18 19.01.12 тихо ()   4000 м  слаб. снег{туман}  10/8 100 м средняя 
[St|Ac und]
-6.6 -7.2 95 -7  1025.8  0.1  726  301    -4.6  0.0     
21 19.01.12 тихо ()   4000 м  слаб. снег  10/10 150 м 
[St]
-5.9 -6.5 95 -6  1025.1  -0.5  726  300           
00 20.01.12 170 (Ю) 10 км  слаб. снег  8/6 330 м средняя 
[Sc|Ac trans]
-8.7 -9.4 95 -10  1026.2  0.4  726  303           
03 20.01.12 230 (ЮЗ) >10 км  слаб. снег  10/5 600 м средняя 
[Sc|Ac und]
-7.4 -8.2 94 -7  1025.7  -0.1  726  302        20  равномерный
сухой снег
100% 
06 20.01.12 150 (ЮВ) 10 км  слаб. снег  10/6 600 м средняя 
[Sc|Ac und]
-7.7 -8.4 95 -7  1026.9  727  302  -8.9       
09 20.01.12 тихо ()   >10 км  {снег}  5/0 средняя, верхняя 
[Ac trans|Ci fib]
-3.2 -4.8 89 -3  1025.4  -0.4  727  297           
12 20.01.12 100 (В) >10 км  {снег}  3/0 средняя 
[Ac trans]
-6.3 -8.4 85 -6  1026.2  -0.1  727  301           
15 20.01.12 110 (В) 4000 м  дымка  8/5 180 м средняя 
[St|Ac trans]
-10.4 -11.1 95 -13  1027.7  0.6  727  306    +0.5       
18 20.01.12 140 (ЮВ) 0200 м  переохл. туман  ?/?  
-8.3 -9 95 -11  1027.4  0.2  727  303    +0.5  0.2     
21 20.01.12 140 (ЮВ) 0200 м  переохл. туман  10/0 
[]
-9.3 -10.2 93 -11  1027.3  -0.3  727  304           
00 21.01.12 150 (ЮВ) 0200 м  переохл. туман  ?/?  
-9 -9.9 93 -9  1027.3  727  304           
03 21.01.12 140 (ЮВ) 0200 м  переохл. туман  ?/?  
-8.5 -9.2 95 -8  1026.7  -0.4  727  303        20  равномерный
сухой снег
100% 
06 21.01.12 130 (ЮВ) 0200 м  переохл. туман  ?/?  
-7.3 -8 95 -11  1026.2  -0.2  727  302           
09 21.01.12 110 (В) 4000 м  дымка{туман}  10/10 100 м 
[St]
-6.2 -7 94 -10  1025.5  -0.5  726  300           
12 21.01.12 100 (В) 4000 м  дымка{туман}  10/10 120 м 
[St]
-6.2 -6.9 95 -11  1023.9  -1.5  725  300           
15 21.01.12 110 (В) >10 км    10/8 300 м средняя 
[Sc|Ac und]
-6.2 -6.9 95 -12  1023.1  -0.8  725  299    -5.6       
18 21.01.12 110 (В) >10 км    10/10 240 м 
[St|Ac und]
-6.3 -7 95 -11  1021.7  -1.4  723  299    -5.6       
21 21.01.12 110 (В) 10 км  позёмок  10/8 300 м средняя 
[Sc|Ac und]
-6.2 -6.8 95 -12  1020.3  -1.3  722  299           
00 22.01.12 110 (В) 10 км  позёмок  10/8 300 м средняя 
[Sc|Ac und]
-4.9 -5.4 96 -10  1018.8  -1.1  722  297           
03 22.01.12 110 (В) 10 км  позёмок  10/8 300 м средняя 
[Sc|Ac und]
-5.6 -6.2 96 -11  1018.1  -0.8  721  297        18  неравномерный
сухой снег
100% 
06 22.01.12 110 (В) 10  10 км  позёмок  10/8 300 м средняя 
[Sc|Ac und]
-5.2 -5.8 96 -11  1018.2  0.2  721  297  -6.7      18  равномерный
сухой снег
100% 
09 22.01.12 100 (В) 10 км  позёмок  10/8 360 м средняя 
[Sc|Ac und]
-4.2 -4.9 95 -10  1017.3  -0.7  721  295           
12 22.01.12 110 (В) 10  10 км  позёмок  10/8 330 м средняя 
[Sc|Ac und]
-3.9 -4.6 95 -10  1016.9  -0.3  720  295           
15 22.01.12 110 (В) 10 км  позёмок{снег}  10/8 400 м средняя 
[Sc|Ac und]
-3.8 -4.5 95 -9  1017.3  0.4  721  295    -3.5       
18 22.01.12 130 (ЮВ) 10 км  слаб. снег  10/8 300 м средняя 
[Sc|Ac und]
-3.5 -4.1 96 -9  1016.8  -0.4  721  294    -3.5  0.0     
21 22.01.12 130 (ЮВ) 10  10 км  позёмок{снег}  10/8 330 м средняя 
[Sc|Ac und]
-3.9 -4.5 96 -10  1017.4  0.5  721  295           
00 23.01.12 130 (ЮВ) 10  10 км  позёмок{снег}  10/8 360 м средняя 
[Sc|Ac und]
-4.7 -5.3 96 -11  1017.4  -0.2  721  296           
03 23.01.12 130 (ЮВ) 10 км  позёмок  10/8 300 м средняя 
[Sc|Ac und]
-4.4 -5.1 95 -10  1017.6  0.2  721  296        23  очень
неравномерный
сухой снег
(сугробы, заносы) 
06 23.01.12 120 (ЮВ) >10 км  слаб. снег  10/10 200 м 
[Ns]
-4.2 -4.7 96 -9  1019  1.3  722  296  -4.7    0.0     
09 23.01.12 110 (В) 0500 м  сильн. снег  10/10 150 м 
[Ns]
-3.9 -4.4 96 -9  1018.8  0.1  722  295           
12 23.01.12 120 (ЮВ) 0700 м  сильн. снег  10/10 120 м 
[Ns]
-4.3 -4.8 96 -9  1020  1.1  723  296           
15 23.01.12 130 (ЮВ) 0800 м  сильн. снег  10/10 180 м 
[Ns]
-4.6 -5.1 96 -9  1020.9  0.8  723  297    -3.8       
18 23.01.12 120 (ЮВ) 2000 м  снег  10/10 100 м 
[Ns]
-5.2 -5.7 96 -10  1021  723  298    -3.8     
21 23.01.12 130 (ЮВ) >10 км  {снег}  10/8 400 м средняя 
[Sc|Ac und]
-6.1 -6.7 95 -9  1021  -0.3  723  299           
00 24.01.12 090 (В) >10 км  {снег}  10/5 600 м средняя 
[Sc|Ac und]
-6.5 -7.2 95 -10  1020.8  -0.2  723  299           
03 24.01.12 080 (В) >10 км    10/6 450 м средняя 
[Sc|Ac und]
-6.7 -7.4 95 -6  1021.2  0.3  723  299        30  очень
неравномерный
сухой снег
(сугробы, заносы) 
06 24.01.12 тихо ()   4000 м  снежные зёрна  10/10 200 м 
[St]
-6.5 -7.2 95 -7  1021.8  0.7  724  299  -7       
09 24.01.12 060 (СВ) 0500 м  туман  ?/?  
-7 -7.7 95 -7  1022.2  0.3  724  300           
12 24.01.12 060 (СВ) 1500 м  слаб. снег{туман}  10/10 100 м 
[St]
-7.9 -8.7 94 -9  1022.7  0.3  724  301           
15 24.01.12 050 (СВ) 3000 м  дымка{снег}  10/10 100 м 
[St]
-11.4 -12.5 91 -16  1024.6  1.1  725  306    -5.9       
18 24.01.12 060 (СВ) 2000 м  дымка{снег}  10/10 100 м 
[St]
-12.7 -14 90 -16  1025.5  0.5  725  308    -5.9  0.0     
21 24.01.12 120 (ЮВ) 10 км    10/5 120 м средняя 
[St|Ac und]
-11.7 -12.8 92 -14  1024.8  -0.4  725  306           
00 25.01.12 100 (В) 10 км    10/6 360 м средняя 
[Sc|Ac und]
-11.2 -12.3 92 -13  1024.3  -0.4  725  306           
03 25.01.12 080 (В) 4000 м  дымка  10/10 200 м 
[St]
-12.6 -13.8 91 -13  1024.5  -0.1  725  307        30  очень
неравномерный
сухой снег
(сугробы, заносы) 
06 25.01.12 160 (Ю) 10 км    3/0 верхняя 
[Ci fib]
-13.4 -14.8 89 -13  1024.6  0.1  724  308  -13.8      30  очень
неравномерный
сухой снег
(сугробы, заносы) 
09 25.01.12 090 (В) >10 км    1/0 верхняя 
[Ci fib]
-11.7 -13 90 -14  1023.3  -0.8  724  306           
12 25.01.12 100 (В) 10 км    3/0 верхняя 
[Ci fib]
-13.6 -15 89 -17  1023.4  -0.3  724  308           
15 25.01.12 070 (В) 10 км    3/0 верхняя 
[Ci fib]
-17.1 -18.7 88 -22  1024.8  0.5  724  313    -10.2       
18 25.01.12 080 (В) 10 км  {снег}  4/0 верхняя 
[Ci fib]
-19 -20.8 85 -24  1025.6  0.4  724  315    -10.2       
21 25.01.12 090 (В) 10 км    3/0 верхняя 
[Ci fib]
-20.7 -22.7 84 -27  1026.5  0.4  725  317           
00 26.01.12 100 (В) >10 км    3/0 верхняя 
[Ci fib]
-21.9 -24.1 82 -29  1027.4  0.5  725  319           
03 26.01.12 110 (В) >10 км    3/0 верхняя 
[Ci fib]
-22.3 -24.5 82 -29  1027.8  0.3  725  320        29  очень
неравномерный
сухой снег
(сугробы, заносы) 
06 26.01.12 110 (В) >10 км    3/0 верхняя 
[Ci fib]
-22.1   1029  1.6  726    -22.3    0.0  29  очень
неравномерный
сухой снег
(сугробы, заносы) 
09 26.01.12 100 (В) 10 км  позёмок  5/0 верхняя 
[Ci fib]
-16.2 -17.9 87 -24  1028.2  0.1  726  313           
12 26.01.12 110 (В) 10 км  позёмок  8/0 верхняя 
[Ci]
-16 -17.8 86 -24  1028.3  0.2  727  312           
15 26.01.12 100 (В) 10 км  позёмок  8/0 верхняя 
[Ci fib]
-18.2 -19.9 86 -26  1030.1  1.2  728  316    -15.7       
18 26.01.12 100 (В) 10 км  позёмок  4/0 верхняя 
[Ci fib]
-18.8 -20.6 86 -27  1030.4  0.1  728  316    -15.7       
21 26.01.12 080 (В) 10 км  позёмок  5/0 верхняя 
[Ci fib]
-19.2 -21.8 80 -26  1030  -0.4  727  317           
00 27.01.12 070 (В) 10 км    4/0 верхняя 
[Ci fib]
-20.9 -23.4 80 -28  1030.5  727  319           
03 27.01.12 090 (В) >10 км    3/0 верхняя 
[Ci fib]
-22.8 -26 76 -29  1030  -0.7  727  321        28  очень
неравномерный
сухой снег
(сугробы, заносы) 
06 27.01.12 100 (В) >10 км    3/0 верхняя 
[Ci fib]
-21.1 -24.4 75 -27  1030.2  0.5  727  319  -22.9      28  очень
неравномерный
сухой снег
(сугробы, заносы) 
09 27.01.12 070 (В) >10 км    3/0 средняя 
[Ac trans]
-17.3 -19.9 80 -21  1028.7  -0.5  727  314           
12 27.01.12 070 (В) 10 км    3/0 средняя 
[Ac trans]
-16.6 -19.2 80 -20  1028.1  -0.5  726  313           
15 27.01.12 060 (СВ) 10 км  {снег}  3/0 верхняя 
[Ci fib]
-19.3 -21.9 80 -25  1029.1  0.4  727  317    -16.6       
18 27.01.12 080 (В) 10 км  ледяные иглы{снег}  3/0 средняя 
[Ac trans]
-19.5 -22.4 78 -24  1029.4  0.2  727  317    -16.6  0.0     
21 27.01.12 060 (СВ) 10 км  ледяные иглы{снег}  4/0 средняя 
[Ac trans]
-20.3 -22.8 80 -21  1029.2  -0.4  726  318           
00 28.01.12 040 (СВ) >10 км  ледяные иглы{снег}  4/0 средняя 
[Ac trans]
-20.1 -22.7 80 -20  1028.5  -0.5  726  317           
03 28.01.12 тихо ()   4000 м  дымка{снег}  4/4 100 м 
[St]
-20.6 -21.8 90 -21  1028.4  -0.3  726  318        26  очень
неравномерный
сухой снег
(сугробы, заносы) 
06 28.01.12 тихо ()   >10 км  {снег}  3/0 
-19.2 -21.1 85 -19  1028  -0.1  726  316  -20.8    0.5  26  очень
неравномерный
сухой снег
(сугробы, заносы) 
09 28.01.12 310 (СЗ) >10 км    ясно 
-16.2 -18.8 80 -16  1027.2  726  312           
12 28.01.12 290 (З) >10 км    3/3 300 м 
[Sc]
-16 -18.7 80 -21  1028.1  0.8  726  312           
15 28.01.12 260 (З) >10 км    3/3 300 м 
[Sc]
-18.2 -20.8 80 -22  1029.4  0.8  727  315           
18 28.01.12 260 (З) >10 км  ледяные иглы{снег}  3/0 средняя 
[Ac trans]
-18.3 -20.2 85 -24  1029.7  0.3  727  316    -15.7       
21 28.01.12 280 (З) >10 км  ледяные иглы{снег}  ясно 
-18.5 -21.2 79 -21  1029.4  -0.4  727  316           
00 29.01.12 290 (З) >10 км  ледяные иглы{снег}  ясно 
-18.7 -20.6 85 -23  1029.9  -0.4  727  316           
03 29.01.12 140 (ЮВ) >10 км  ледяные иглы{снег}  ясно 
-19 -20.9 85 -22  1030.6  0.6  728  317        26  очень
неравномерный
сухой снег
(сугробы, заносы) 
06 29.01.12 тихо ()   >10 км  {снег}  4/0 средняя 
[Ac trans]
-18.9 -20.8 85 -19  1032.6  1.9  729  317  -20.8    0.0     
09 29.01.12 200 (Ю) >10 км    5/0 средняя 
[Ac trans]
-13 -15 85 -15  1031.3  0.1  729  310           
12 29.01.12 130 (ЮВ) >10 км    3/0 средняя 
[Ac trans]
-12.9 -16.4 75 -17  1031.2  729  310           
15 29.01.12 080 (В) >10 км    8/0 средняя 
[Ac trans]
-16.3 -18.9 80 -21  1032.9  0.8  730  314           
18 29.01.12 090 (В) >10 км    3/0 средняя 
[Ac trans]
-18.1 -20 85 -23  1033.4  0.1  730  316    -11.8  0.0     
21 29.01.12 130 (ЮВ) >10 км    ясно 
-18 -19.9 85 -22  1033.3  -0.1  730  316           
00 30.01.12 120 (ЮВ) >10 км    ясно 
-19.1 -21 85 -22  1032.8  -0.7  729  317           
03 30.01.12 080 (В) >10 км    ясно 
-20.9 -22.8 84 -27  1032.8  -0.5  729  320        26  очень
неравномерный
сухой снег
(сугробы, заносы) 
06 30.01.12 100 (В) >10 км    1/0 верхняя 
[Ci fib]
-18.9 -21.5 80 -24  1032.3  729  317  -20.9      26  очень
неравномерный
сухой снег
(сугробы, заносы) 
09 30.01.12 090 (В) >10 км    3/0 верхняя 
[Ci fib]
-14.8 -17.5 80 -20  1031  -0.2  731  313           
12 30.01.12 090 (В) >10 км    1/0 верхняя 
[Ci fib]
-12.8 -14.8 85 -19  1030.2  -0.3  728  309           
15 30.01.12 090 (В) >10 км    8/0 верхняя 
[Ci fib]
-15.5 -17.4 85 -21  1031  0.1  729  313           
18 30.01.12 110 (В) >10 км    3/0 средняя 
[Ac trans]
-17.5 -19.4 85 -23  1031.2  -0.3  728  315    -12.8       
21 30.01.12 090 (В) >10 км    3/0 верхняя 
[Ci fib]
-17.4 -20 80 -22  1030.6  -0.6  728  315           
00 31.01.12 090 (В) >10 км    3/0 верхняя 
[Ci fib]
-18.7 -21.3 80 -24  1029.8  -1  727  316           
03 31.01.12 080 (В) >10 км    9/0 верхняя 
[Ci fib]
-17.7 -20.3 80 -23  1028.6  -0.9  726  315        26  очень
неравномерный
сухой снег
(сугробы, заносы) 
06 31.01.12 080 (В) 10 км    10/5 300 м средняя 
[Sc|Ac und]
-18 -19.2 90 -23  1027.5  -1.1  726  314  -18.8      26  очень
неравномерный
сухой снег
(сугробы, заносы) 
09 31.01.12 080 (В) >10 км    10/3 600 м средняя 
[Sc|Ac und]
-17.3 -19.9 80 -25  1026.4  -0.8  725  313           
12 31.01.12 070 (В) 10 км  слаб. снег  10/0 средняя 
[As op]
-16.8 -18.7 85 -23  1024.8  -1.4  724  312           
15 31.01.12 070 (В) 2000 м  снег  10/10 400 м 
[Ns]
-18.2 -20 86 -26  1024.7  -0.3  724  314           
18 31.01.12 070 (В) 3000 м  снег  10/10 600 м 
[Ns]
-18 -19.8 86 -26  1024.3  -0.3  723  314    -15.5  0.2     
21 31.01.12 070 (В) 10 км  слаб. снег  10/10 700 м 
[Ns]
-18.5 -20.4 85 -25  1023.8  -0.6  723  314           
00 01.02.12 080 (В) 10 км  слаб. снег  10/10 300 м 
[Ns]
-18.8 -20.6 86 -25  1023.2  -0.6  722  314           
03 01.02.12 090 (В) 4000 м  слаб. снег  10/10 200 м 
[Ns]
-18.9 -20.8 85 -23  1023.1  -0.1  722  314        31  очень
неравномерный
сухой снег
(сугробы, заносы) 
06 01.02.12 080 (В) 10 км  слаб. снег  10/6 600 м средняя 
[Sc|Ac und]
-18.4 -20.2 85 -23  1022.9  722  314  -18.9       
09 01.02.12 100 (В) >10 км  {снег}  4/0 средняя 
[Ac trans]
-16.7 -18.4 87 -17  1022.3  -0.2  722  311           
12 01.02.12 090 (В) >10 км  {снег}  8/0 средняя, верхняя 
[Ac trans|Ci fib]
-16.1 -17.7 88 -16  1022.6  0.4  723  311           
15 01.02.12 070 (В) >10 км    8/0 средняя, верхняя 
[Ac trans|Ci fib]
-19.6 -21.5 85 -20  1024.9  1.3  724  316    -15       
Время (UTC), дата Ветер
(°,м/с) 
Видим.   Явления Облачность Т
(°С)
Тd
(°С)
f(%) Тe
(°С)
Pmin
(гПа)
dP
(гПа)
Po
(мм)
O2
(г/м3)
Тmin Tmax R s Состояние
почвы